Latest Weather Observations for Gold Coast Seaway

IDQ60901

Issued at 1:11 pm EST Tuesday 4 August 2015 (issued every 10 minutes, with the page automatically refreshed every 10 minutes)

About weather observations | Map of Brisbane area stations | Latest observations for Brisbane area | Other Formats
Station Details ID: 040764 Name: GOLD COAST SEAWAY Lat: -27.94 Lon: 153.43 Height: 2.98 m
Data from the previous 72 hours. | See also: Recent months at Gold Coast Seaway
Date/Time
EST
Tmp

°C
App
Tmp
°C
Dew
Point
°C
Rel
Hum
%
Delta-T

°C
Wind Press
QNH
hPa
Press
MSL
hPa
Rain
since
9 am
mm
Dir
 
Spd
km/h
Gust
km/h
Spd
kts
Gust
kts
04/01:00pm 19.9 14.9 10.9 56 4.9 S 28 33 15 18 1017.8 1017.8 0.0
04/12:30pm 20.6 15.5 11.8 57 4.9 SSE 30 37 16 20 1018.0 1018.0 0.0
04/12:00pm 19.5 14.5 10.8 57 4.7 S 28 33 15 18 1018.5 1018.5 0.0
04/11:30am 20.0 13.6 10.7 55 5.1 S 35 41 19 22 1018.9 1018.9 0.0
04/11:00am 20.7 14.9 11.6 56 5.0 SSE 33 39 18 21 1019.3 1019.3 0.0
04/10:30am 19.1 13.2 10.6 58 4.6 S 32 39 17 21 1019.6 1019.6 0.0
04/10:00am 18.7 13.6 10.5 59 4.4 S 28 35 15 19 1019.7 1019.7 0.0
04/09:30am 18.7 12.6 9.8 56 4.7 S 32 43 17 23 1019.7 1019.7 0.0
04/09:00am 18.7 12.8 10.3 58 4.5 S 32 39 17 21 1019.3 1019.3 0.0
04/08:30am 18.1 12.3 10.7 62 4.0 S 32 44 17 24 1019.2 1019.2 0.0
04/08:00am 17.1 11.9 10.2 64 3.6 S 28 46 15 25 1019.0 1019.0 0.0
04/07:58am 17.0 11.8 10.1 64 3.6 S 28 46 15 25 1019.0 1019.0 0.0
04/07:30am 17.1 12.6 10.2 64 3.7 S 24 35 13 19 1018.7 1018.7 0.0
04/07:00am 16.8 11.9 10.0 64 3.6 S 26 33 14 18 1018.5 1018.5 0.0
04/06:30am 17.0 10.8 9.2 60 4.0 S 32 43 17 23 1018.1 1018.1 0.0
04/06:00am 17.2 11.3 9.1 59 4.2 S 30 37 16 20 1017.9 1017.9 0.0
04/05:30am 17.7 11.5 11.3 66 3.5 SSE 35 43 19 23 1017.3 1017.3 0.0
04/05:00am 17.9 11.3 11.2 65 3.6 S 37 48 20 26 1017.0 1017.0 0.0
04/04:30am 17.9 12.2 11.9 68 3.3 S 33 41 18 22 1016.7 1016.7 0.0
04/04:00am 18.0 12.3 9.9 59 4.3 S 30 37 16 20 1016.5 1016.5 0.0
04/03:30am 17.5 13.5 8.1 54 4.8 S 19 26 10 14 1016.4 1016.4 0.0
04/03:00am 17.1 14.0 8.8 58 4.3 SSW 15 20 8 11 1016.3 1016.3 0.0
04/02:30am 15.6 14.6 12.4 81 1.8 SSW 9 15 5 8 1016.2 1016.2 0.0
04/02:00am 15.7 15.3 13.0 84 1.5 WSW 7 11 4 6 1016.1 1016.1 0.0
04/01:30am 15.2 14.8 12.9 86 1.3 WNW 7 9 4 5 1016.1 1016.1 0.0
04/01:00am 15.8 15.5 13.3 85 1.4 SSW 7 9 4 5 1016.3 1016.3 0.0
04/12:30am 16.2 15.8 13.1 82 1.7 S 7 7 4 4 1016.3 1016.3 0.0
04/12:00am 17.1 17.2 13.8 81 1.9 SW 6 7 3 4 1016.3 1016.3 0.0
 
Date/Time
EST
Tmp

°C
App
Tmp
°C
Dew
Point
°C
Rel
Hum
%
Delta-T

°C
Wind Press
QNH
hPa
Press
MSL
hPa
Rain
since
9 am
mm
Dir
 
Spd
km/h
Gust
km/h
Spd
kts
Gust
kts
03/11:30pm 17.8 17.2 15.6 87 1.3 WSW 13 13 7 7 1015.9 1015.9 0.0
03/11:00pm 17.9 17.7 16.8 93 0.7 WNW 13 17 7 9 1016.0 1016.0 0.0
03/10:30pm 18.0 18.8 17.4 96 0.4 NW 9 13 5 7 1015.8 1015.8 0.0
03/10:00pm 18.2 19.6 17.7 97 0.3 NW 7 11 4 6 1015.8 1015.8 0.0
03/09:30pm 18.4 19.0 17.6 95 0.5 NW 11 15 6 8 1015.9 1015.9 0.0
03/09:00pm 18.8 19.1 17.8 94 0.6 NW 13 15 7 8 1015.9 1015.9 0.0
03/08:30pm 19.1 18.9 17.6 91 0.9 NW 15 19 8 10 1015.9 1015.9 0.0
03/08:00pm 19.2 19.6 17.3 89 1.2 NW 11 15 6 8 1016.0 1016.0 0.0
03/07:30pm 19.1 19.3 16.7 86 1.4 NNW 11 13 6 7 1015.7 1015.7 0.0
03/07:00pm 19.5 19.0 16.9 85 1.6 NNW 15 19 8 10 1015.4 1015.4 0.0
03/06:30pm 19.7 19.1 16.7 83 1.8 NNW 15 19 8 10 1015.1 1015.1 0.0
03/06:00pm 19.9 19.7 16.7 82 1.9 NNW 13 19 7 10 1014.9 1014.9 0.0
03/05:30pm 20.3 19.5 16.1 77 2.5 NNW 15 20 8 11 1014.5 1014.5 0.0
03/05:00pm 21.0 19.8 16.0 73 3.0 N 17 20 9 11 1014.2 1014.2 0.0
03/04:30pm 22.2 20.5 15.8 67 3.8 N 19 26 10 14 1014.1 1014.1 0.0
03/04:00pm 23.3 21.3 15.4 61 4.7 N 20 28 11 15 1014.0 1014.0 0.0
03/03:30pm 24.3 22.8 15.2 57 5.5 N 17 22 9 12 1013.8 1013.8 0.0
03/03:00pm 24.9 23.2 14.7 53 6.1 NNW 17 26 9 14 1013.8 1013.8 0.0
03/02:30pm 25.5 22.1 12.4 44 7.5 NW 22 28 12 15 1013.9 1013.9 0.0
03/02:00pm 25.3 20.9 11.8 43 7.7 NW 26 32 14 17 1014.1 1014.1 0.0
03/01:30pm 24.9 20.1 11.8 44 7.4 NW 28 33 15 18 1014.4 1014.4 0.0
03/01:00pm 24.7 21.0 12.6 47 7.0 NW 24 33 13 18 1014.7 1014.7 0.0
03/12:30pm 24.2 20.4 12.5 48 6.7 NW 24 32 13 17 1015.3 1015.3 0.0
03/12:00pm 23.9 20.2 12.8 49 6.4 NW 24 32 13 17 1015.8 1015.8 0.0
03/11:30am 23.3 18.8 12.6 51 6.1 NW 28 35 15 19 1016.5 1016.5 0.0
03/11:00am 22.7 19.0 12.6 53 5.7 NW 24 32 13 17 1017.1 1017.1 0.0
03/10:30am 22.2 19.1 13.3 57 5.1 NW 22 30 12 16 1017.8 1017.8 0.0
03/10:00am 21.6 19.5 13.5 60 4.7 NNW 17 30 9 16 1018.2 1018.2 0.0
03/09:30am 20.8 18.7 14.7 68 3.6 N 19 24 10 13 1018.4 1018.4 0.0
03/09:00am 19.5 19.1 14.1 71 3.1 NNW 9 13 5 7 1018.5 1018.5 0.0
03/08:30am 18.4 17.8 14.7 79 2.1 NNW 11 20 6 11 1018.5 1018.5 0.0
03/08:00am 16.9 15.9 14.5 86 1.4 NNW 13 17 7 9 1018.3 1018.3 0.0
03/07:30am 15.2 14.0 13.9 92 0.7 NW 13 17 7 9 1018.1 1018.1 0.0
03/07:00am 14.7 13.6 14.2 97 0.3 NW 13 17 7 9 1017.8 1017.8 0.0
03/06:30am 14.6 12.7 14.1 97 0.3 NNW 17 20 9 11 1017.6 1017.6 0.0
03/06:00am 14.8 12.9 14.2 96 0.3 NW 17 19 9 10 1017.7 1017.7 0.0
03/05:30am 15.3 13.6 14.7 96 0.3 NW 17 19 9 10 1017.6 1017.6 0.0
03/05:00am 15.4 14.0 14.6 95 0.5 NW 15 17 8 9 1017.5 1017.5 0.0
03/04:30am 15.5 14.7 15.2 98 0.2 NW 13 17 7 9 1017.5 1017.5 0.0
03/04:00am 15.5 14.9 14.5 94 0.6 NNW 11 15 6 8 1017.7 1017.7 0.0
03/03:30am 16.0 15.1 14.9 93 0.6 NW 13 15 7 8 1017.7 1017.7 0.0
03/03:00am 16.2 15.0 15.1 93 0.6 NW 15 17 8 9 1017.9 1017.9 0.0
03/02:30am 16.3 15.5 15.0 92 0.8 NW 13 17 7 9 1018.1 1018.1 0.0
03/02:00am 16.7 16.4 15.4 92 0.8 NW 11 13 6 7 1018.3 1018.3 0.0
03/01:30am 16.9 16.3 15.6 92 0.8 NW 13 17 7 9 1018.4 1018.4 0.0
03/01:00am 17.2 16.8 16.1 93 0.6 NW 13 17 7 9 1018.7 1018.7 0.0
03/12:30am 17.4 17.2 16.8 96 0.4 NNW 13 17 7 9 1018.8 1018.8 0.0
03/12:00am 17.5 17.4 17.0 97 0.3 NW 13 15 7 8 1019.1 1019.1 0.0
 
Date/Time
EST
Tmp

°C
App
Tmp
°C
Dew
Point
°C
Rel
Hum
%
Delta-T

°C
Wind Press
QNH
hPa
Press
MSL
hPa
Rain
since
9 am
mm
Dir
 
Spd
km/h
Gust
km/h
Spd
kts
Gust
kts
02/11:30pm 17.7 17.5 17.5 99 0.1 NW 15 17 8 9 1019.4 1019.4 0.0
02/11:00pm 17.8 17.5 17.3 97 0.3 NW 15 19 8 10 1019.4 1019.4 0.0
02/10:30pm 18.0 17.5 17.7 98 0.2 NW 17 20 9 11 1019.5 1019.5 0.0
02/10:00pm 18.1 17.6 17.9 99 0.1 NNW 17 22 9 12 1019.4 1019.4 0.0
02/09:30pm 17.9 17.6 17.4 97 0.3 NW 15 20 8 11 1019.4 1019.4 0.0
02/09:00pm 17.4 17.9 16.6 95 0.5 NW 9 13 5 7 1019.6 1019.6 0.0
02/08:30pm 17.4 17.8 16.3 93 0.7 WNW 9 13 5 7 1019.4 1019.4 0.0
02/08:00pm 17.5 17.4 16.0 91 0.9 NNW 11 13 6 7 1019.3 1019.3 0.0
02/07:30pm 17.8 17.9 15.4 86 1.4 NNW 9 11 5 6 1019.2 1019.2 0.0
02/07:00pm 18.3 17.7 15.6 84 1.6 NNW 13 19 7 10 1019.2 1019.2 0.0
02/06:30pm 18.7 18.0 15.4 81 1.9 NNW 13 15 7 8 1019.0 1019.0 0.0
02/06:00pm 19.3 18.5 15.2 77 2.4 NNW 13 19 7 10 1018.6 1018.6 0.0
02/05:30pm 19.9 17.7 14.5 71 3.1 NNW 19 28 10 15 1018.3 1018.3 0.0
02/05:00pm 20.7 18.8 14.1 66 3.8 N 17 24 9 13 1018.4 1018.4 0.0
02/04:30pm 21.8 19.5 14.2 62 4.4 N 19 24 10 13 1018.5 1018.5 0.0
02/04:00pm 22.3 19.5 14.2 60 4.7 N 22 30 12 16 1018.5 1018.5 0.0
02/03:30pm 22.9 19.2 13.9 57 5.3 N 26 33 14 18 1018.5 1018.5 0.0
02/03:00pm 22.9 19.2 12.8 53 5.8 N 24 32 13 17 1018.6 1018.6 0.0
02/02:30pm 23.4 18.7 12.1 49 6.4 N 28 37 15 20 1018.7 1018.7 0.0
02/02:00pm 23.3 18.6 10.7 45 7.0 N 26 37 14 20 1018.9 1018.9 0.0
02/01:30pm 23.4 18.8 11.1 46 6.9 N 26 33 14 18 1019.2 1019.2 0.0
02/01:00pm 23.2 18.2 10.9 46 6.8 N 28 37 15 20 1019.8 1019.8 0.0
02/12:30pm 22.9 17.9 12.2 51 6.1 N 30 39 16 21 1020.3 1020.3 0.0
02/12:00pm 22.9 18.9 13.1 54 5.6 N 26 32 14 17 1020.8 1020.8 0.0
02/11:30am 21.8 18.0 12.4 55 5.3 NNW 24 33 13 18 1021.5 1021.5 0.0
02/11:00am 21.4 18.0 12.5 57 5.0 NNW 22 32 12 17 1022.1 1022.1 0.0
02/10:30am 21.3 17.7 13.2 60 4.6 NNW 24 37 13 20 1022.4 1022.4 0.0
02/10:00am 20.5 17.4 13.5 64 4.0 NNW 22 32 12 17 1022.7 1022.7 0.0
02/09:30am 18.9 17.8 14.2 74 2.7 NNW 13 19 7 10 1022.8 1022.8 0.0
02/09:00am 18.3 17.0 13.8 75 2.6 NW 13 19 7 10 1022.8 1022.8 0.0
02/08:30am 17.0 15.9 14.3 84 1.5 NW 13 17 7 9 1022.7 1022.7 0.0
02/08:00am 15.2 13.7 14.2 94 0.6 NW 15 17 8 9 1022.6 1022.6 0.0
02/07:30am 14.0 12.4 13.8 99 0.1 NW 15 19 8 10 1022.6 1022.6 0.0
02/07:00am 13.3 11.4 13.1 99 0.1 NW 15 19 8 10 1022.4 1022.4 0.0
02/06:30am 13.4 11.2 13.2 99 0.1 NW 17 19 9 10 1022.1 1022.1 0.0
02/06:00am 13.8 12.1 13.6 99 0.1 NNW 15 19 8 10 1021.7 1021.7 0.0
02/05:30am 13.7 12.0 13.5 99 0.1 NW 15 17 8 9 1021.5 1021.5 0.0
02/05:00am 13.6 12.2 13.4 99 0.1 NW 13 15 7 8 1021.4 1021.4 0.0
02/04:30am 13.8 12.9 13.8 100 0.0 NW 11 15 6 8 1021.2 1021.2 0.0
02/04:00am 14.0 13.2 14.0 100 0.0 NNW 11 13 6 7 1021.3 1021.3 0.0
02/03:30am 13.2 12.4 13.0 99 0.1 N 9 11 5 6 1021.4 1021.4 0.0
02/03:00am 12.6 12.0 12.4 99 0.1 NW 7 7 4 4 1021.6 1021.6 0.0
02/02:30am 12.7 11.4 12.5 99 0.1 WNW 11 11 6 6 1021.7 1021.7 0.0
02/02:00am 13.1 12.3 12.9 99 0.1 WNW 9 11 5 6 1022.0 1022.0 0.0
02/01:30am 14.1 13.5 13.6 97 0.3 WNW 9 11 5 6 1022.3 1022.3 0.0
02/01:00am 14.8 14.4 14.0 95 0.4 WNW 9 9 5 5 1022.4 1022.4 0.0
02/12:30am 15.0 14.6 14.0 94 0.6 NW 9 11 5 6 1022.7 1022.7 0.0
02/12:00am 15.1 14.7 14.0 93 0.6 NW 9 11 5 6 1022.8 1022.8 0.0
 
Date/Time
EST
Tmp

°C
App
Tmp
°C
Dew
Point
°C
Rel
Hum
%
Delta-T

°C
Wind Press
QNH
hPa
Press
MSL
hPa
Rain
since
9 am
mm
Dir
 
Spd
km/h
Gust
km/h
Spd
kts
Gust
kts
01/11:30pm 15.1 14.1 13.3 89 1.0 WNW 11 13 6 7 1022.9 1022.9 0.0
01/11:00pm 15.7 14.4 13.7 88 1.1 NW 13 17 7 9 1022.8 1022.8 0.0
01/10:30pm 15.7 14.3 13.5 87 1.2 NNW 13 15 7 8 1022.7 1022.7 0.0
01/10:00pm 16.1 14.8 13.6 85 1.4 WNW 13 15 7 8 1022.9 1022.9 0.0
01/09:30pm 15.6 14.7 13.6 88 1.1 WNW 11 13 6 7 1023.1 1023.1 0.0
01/09:00pm 16.3 15.4 13.8 85 1.4 WNW 11 13 6 7 1022.8 1022.8 0.0
01/08:30pm 16.3 15.1 14.1 87 1.2 WNW 13 17 7 9 1022.6 1022.6 0.0
01/08:00pm 16.2 15.3 13.7 85 1.4 W 11 15 6 8 1022.4 1022.4 0.0
01/07:30pm 16.8 16.0 13.9 83 1.6 NW 11 15 6 8 1022.0 1022.0 0.0
01/07:00pm 17.5 15.9 14.0 80 2.0 NW 15 17 8 9 1021.7 1021.7 0.0
01/06:30pm 17.7 16.1 13.8 78 2.2 NW 15 17 8 9 1021.5 1021.5 0.0
01/06:00pm 17.9 15.7 13.2 74 2.6 NNW 17 19 9 10 1021.1 1021.1 0.0
01/05:30pm 18.1 17.3 12.8 71 3.0 NNW 9 11 5 6 1021.1 1021.1 0.0
01/05:00pm 19.2 16.5 11.7 62 4.1 NNW 17 22 9 12 1020.8 1020.8 0.0
01/04:30pm 20.5 18.3 12.0 58 4.7 N 15 20 8 11 1020.8 1020.8 0.0
01/04:00pm 21.0 17.3 11.6 55 5.2 N 22 28 12 15 1020.7 1020.7 0.0
01/03:30pm 21.3 17.4 12.2 56 5.1 N 24 30 13 16 1020.7 1020.7 0.0
01/03:00pm 22.1 18.3 11.2 50 6.0 N 22 28 12 15 1020.8 1020.8 0.0
01/02:30pm 22.6 19.0 12.0 51 6.0 N 22 28 12 15 1020.8 1020.8 0.0
01/02:00pm 22.3 19.1 11.1 49 6.2 N 19 26 10 14 1021.1 1021.1 0.0
01/01:30pm 22.5 18.9 11.9 51 6.0 N 22 28 12 15 1021.0 1021.0 0.0

Latest Capital City Observations: Canberra | Sydney | Melbourne | Brisbane | Adelaide | Perth | Hobart | Darwin

Other Formats:

Comma delimited format used in spreadsheet applications
http://www.bom.gov.au/fwo/IDQ60901/IDQ60901.94580.axf

JavaScript Object Notation format (JSON) in row-major order
http://www.bom.gov.au/fwo/IDQ60901/IDQ60901.94580.json